Regional Weather Roundup
Issued by NWS New Orleans/Baton Rouge, LA

Home | Current Version | Previous Version | Text Only | Print | Product List | Glossary On
Versions: 1 2 3 4 5 6 7 8 9 10 11 12 13 14 15 16 17 18 19 20 21 22 23 24 25 26 27 28 29 30 31 32 33 34 35 36 37 38 39 40 41 42 43 44 45 46 47 48 49 50
260
ASUS44 KLIX 201001
RWRLIX
NEW ORLEANS REGIONAL WEATHER ROUNDUP
NATIONAL WEATHER SERVICE NEW ORLEANS LA
500 AM CDT SAT SEP 20 2014

NOTE: "FAIR" INDICATES FEW OR NO CLOUDS BELOW 12,000 FEET WITH NO
      SIGNIFICANT WEATHER AND/OR OBSTRUCTIONS TO VISIBILITY.
      SKY/WX - SKY CONDITION AND SIGNIFICANT WEATHER.
      TMP - AIR TEMPERATURE.     DP    - DEWPOINT TEMPERATURE.
      RH  - RELATIVE HUMIDITY.   PRES  - PRESSURE.
      HI  - HEAT INDEX.          WCI   - WIND CHILL INDEX.

*  THESE STATIONS ARE NOT NWS OR FAA STATIONS AND ARE NOT UNDER
   NWS QUALITY CONTROL.

LAZ038-040-048-061>063-065>067-069-201100-
SOUTHEAST LOUISIANA

CITY           SKY/WX    TMP DP  RH WIND       PRES   REMARKS
N.O. AUDUBON   NOT AVBL
N.O. INTL ARPT CLEAR     79  71  76 E6        29.93R
N.O. LAKEFRONT CLEAR     78  73  84 NE15      29.93S
N.O. DOWNTOWN*   N/A     81  66  61 CALM      29.93R
SLIDELL        CLEAR     72  68  87 NE5       29.94R
BATON ROUGE    CLEAR     70  67  90 NE6       29.95R
BOOTHVILLE     PTCLDY    81  71  71 E13       29.91R
BELLE CHASSE   CLEAR     76  68  76 E8        29.92R
BOGALUSA*        N/A     68  65  89 CALM      29.98R FOG
GALLIANO*      NOT AVBL
NEW ROADS*       N/A     68  67  98 CALM      29.95S FOG
GONZALES*        N/A     71  71 100 NE5       29.93R
HAMMOND*       NOT AVBL
HOUMA*         MOCLDY    73  66  80 NE3       29.91S
PORT FOURCHON* MOSUNNY   81  72  74 E16       29.92S

$$

MSZ070-080>082-201100-
SOUTHERN MISSISSIPPI

CITY           SKY/WX    TMP DP  RH WIND       PRES   REMARKS
MCCOMB         CLEAR     72  67  84 NE3       29.98R
GULFPORT       CLEAR     73  68  84 NE7       29.94R
BILOXI         CLEAR     72  68  87 NE8       29.95R
PASCAGOULA     CLEAR     70  67  90 NE5       29.95R

$$

COASTAL OBSERVATIONS
LAKE AND NEARSHORE STATIONS

STATION/POSITION TIME  TEMP    WIND        PRES    WAVE
                       AIR SEA DIR/SP/G            HT/PER
                 (UTC) (F)     (DEG/KT/KT) (MB)    (FT/S)
PASCAGOULA       0900   74      40/ 10/ 13 1013.4
WAVELAND YACHT   0900   75      50/ 12/ 15 1013.0
GRAND ISLE       0900   81 82  100/ 11/ 15 1012.9
SOUTHWEST PASS   0900   82 89   90/ 23/ 28 1012.1
NEW CANAL        0900   80 81   70/ 13/ 15 1013.6
SHELL BEACH      0900   80 78   80/ 14/ 17 1012.8

OFFSHORE STATIONS

STATION/POSITION TIME  TEMP    WIND        PRES    WAVE
                       AIR SEA DIR/SP/G            HT/PER
                 (UTC) (F)     (DEG/KT/KT) (MB)    (FT/S)
64 S DAUPHIN ISL 0920   82 84   80/ 23/ 27 1012.4    7/ 7

$$




USA.gov is the U.S. government's official web portal to all federal, state and local government web resources and services.